Location: Street
(51.1247°N, 2.7429°W)
Time: 09:29:59
(UTC+01:00)

PCSat - Pass Details

Date: 30 March 2023
Orbit: 783 x 794 km, 67.1° (Epoch: 29 May)

Event Time Altitude Azimuth Distance (km) Brightness Sun altitude
Rises 21:39:09 0° 309° (NW) 3,296 14.4 -18.3°
Reaches altitude 10° 21:42:39 10° 332° (NNW) 2,368 12.9 -18.8°
Maximum altitude 21:45:48 15° 8° (N) 2,020 12.0 -19.2°
Drops below altitude 10° 21:48:56 10° 43° (NE) 2,371 11.9 -19.6°
Enters shadow 21:50:44 - 57° (ENE) 2,801 12.2 -19.8°
